Key West NAF, FL

5:00 PM EST on February 21, 2018 (GMT -0500)
Key West Naval Air Station

Weather History for KNQX - April, 2014

Change the Weather History Date:

Monday, April 7, 2014

  Actual Average Record
Temperature  
Mean Temperature 80 °F -  
Max Temperature 86 °F 80 °F 87 °F (1980)
Min Temperature 77 °F 70 °F 55 °F (1950)
Cooling Degree Days 16    
Growing Degree Days 30 (Base 50)    
Moisture  
Dew Point 74 °F    
Average Humidity 81    
Maximum Humidity 90    
Minimum Humidity 67    
Precipitation  
Precipitation 0.00 in - - ()
Sea Level Pressure  
Sea Level Pressure 29.92 in    
Wind  
Wind Speed 13 mph (SE)    
Max Wind Speed 17 mph    
Max Gust Speed -    
Visibility 10 miles    
Events      
Averages and records for this station are not official NWS values.
T = Trace of Precipitation, MM = Missing Value Source: NWS Daily Summary

Daily Weather History Graph

Daily Weather History Graph

Search for Another Location

Airport or City:

Trip Planner

Search our weather history database for the weather conditions in past years. The results will help you decide how hot, cold, wet, or windy it might be!

Date:

Astronomy

Apr. 07, 2014 Rise Set
Actual Time 7:12 AM EDT 7:45 PM EDT
Civil Twilight 6:49 AM EDT 8:08 PM EDT
Nautical Twilight 6:22 AM EDT 8:35 PM EDT
Astronomical Twilight 5:55 AM EDT 9:02 PM EDT
Moon 1:23 PM EDT (4/7) 2:04 AM EDT (4/7)
Length of Visible Light 13h 19m
Length of Day
12h 32m
First Quarter, 53% of the Moon is Illuminated
Apr 7
First Quarter
Apr 15
Full
Apr 22
Last Quarter
Apr 29
New
May 6
First Quarter

Hourly Weather History & Observations

Time (EDT) Temp. Heat Index Dew Point Humidity Pressure Visibility Wind Dir Wind Speed Gust Speed Precip Events Conditions
12:53 AM 77.0 °F - 72.0 °F 84% 29.98 in 10.0 mi ESE 11.5 mph - N/A   Mostly Cloudy
1:53 AM 77.0 °F - 72.0 °F 84% 29.96 in 10.0 mi ESE 13.8 mph - N/A   Partly Cloudy
2:53 AM 77.0 °F - 72.0 °F 84% 29.94 in 10.0 mi ESE 13.8 mph - N/A   Clear
3:53 AM 77.0 °F - 72.0 °F 84% 29.92 in 10.0 mi ESE 13.8 mph - N/A   Partly Cloudy
4:53 AM 77.0 °F - 73.0 °F 88% 29.91 in 10.0 mi SE 13.8 mph - N/A   Clear
5:53 AM 77.0 °F - 73.0 °F 88% 29.91 in 10.0 mi SE 15.0 mph - N/A   Partly Cloudy
6:05 AM 77.0 °F - 73.0 °F 88% 29.92 in 10.0 mi SE 15.0 mph - N/A   Scattered Clouds
6:53 AM 77.0 °F - 73.0 °F 88% 29.92 in 10.0 mi SE 12.7 mph - N/A   Partly Cloudy
7:53 AM 78.1 °F - 73.0 °F 84% 29.94 in 10.0 mi SSE 13.8 mph - N/A   Clear
8:53 AM 80.1 °F 84.5 °F 73.9 °F 81% 29.94 in 10.0 mi SE 13.8 mph - N/A   Clear
9:53 AM 82.0 °F 87.9 °F 73.9 °F 76% 29.95 in 10.0 mi SE 16.1 mph - N/A   Partly Cloudy
10:53 AM 82.9 °F 89.4 °F 73.9 °F 74% 29.94 in 10.0 mi SE 17.3 mph - N/A   Partly Cloudy
11:53 AM 84.0 °F 91.2 °F 73.9 °F 72% 29.94 in 10.0 mi SSE 17.3 mph - N/A   Clear
12:53 PM 84.9 °F 91.4 °F 73.0 °F 67% 29.94 in 10.0 mi SSE 17.3 mph - N/A   Clear
1:53 PM 84.9 °F 91.4 °F 73.0 °F 67% 29.92 in 10.0 mi SSE 16.1 mph - N/A   Partly Cloudy
2:53 PM 84.9 °F 91.4 °F 73.0 °F 67% 29.90 in 10.0 mi SE 16.1 mph - N/A   Partly Cloudy
3:53 PM 84.9 °F 92.1 °F 73.9 °F 69% 29.87 in 10.0 mi ESE 13.8 mph - N/A   Mostly Cloudy
4:53 PM 82.0 °F 87.9 °F 73.9 °F 76% 29.86 in 10.0 mi SE 15.0 mph - N/A   Mostly Cloudy
5:53 PM 81.0 °F 86.7 °F 75.0 °F 82% 29.86 in 10.0 mi SE 11.5 mph - N/A   Mostly Cloudy
6:53 PM 80.1 °F 85.1 °F 75.0 °F 85% 29.87 in 10.0 mi SE 9.2 mph - N/A   Mostly Cloudy
7:53 PM 80.1 °F 84.5 °F 73.9 °F 81% 29.89 in 10.0 mi SE 6.9 mph - N/A   Mostly Cloudy
8:53 PM 79.0 °F - 75.0 °F 88% 29.91 in 10.0 mi SE 9.2 mph - N/A   Mostly Cloudy
9:53 PM 79.0 °F - 75.9 °F 90% 29.92 in 10.0 mi SSE 8.1 mph - N/A   Mostly Cloudy
10:53 PM 79.0 °F - 75.9 °F 90% 29.92 in 10.0 mi SSE 12.7 mph - N/A   Clear
11:53 PM 79.0 °F - 75.9 °F 90% 29.92 in 9.0 mi SSE 12.7 mph - N/A   Clear